Home > Weather > Kalispell > Past weeks

Flag for U.S.A. Weather for the Past 2 Weeks in Kalispell, Montana, U.S.A.

Now
39 °F

Passing clouds.


Feels Like: 37 °F
Forecast: 32 / 43 °F
Wind: 3 mph from Northeast

Location: Kalispell - Glacier Park International

Current Time: Feb 11, 2016 at 6:36:28 PM

Latest Report: Feb 11, 2016 at 5:55 PM


Visibility: 10 mi

Pressure: 30.32 "Hg (27.13 "Hg at 902m altitude)

Humidity: 76%

Dew point: 32 °F

Location of KalispellLocation

Historic Weather in Kalispell — Graph

°F

Kalispell Temperature Yesterday

Maximum temperature yesterday: 42 °F (at 1:55 PM)
Minimum temperature yesterday: 18 °F (at 3:55 AM)
Average temperature yesterday: 28 °F

High & Low Weather Summary for the Past Weeks

 TemperatureHumidityPressure
High46 °F (Feb 11, 1:55 PM)100% (Jan 27, 7:55 PM)30.74 "Hg (Jan 27, 7:55 PM)
Low0 °F (Feb 3, 6:55 AM)36% (Feb 6, 3:55 PM)29.56 "Hg (Jan 29, 6:04 PM)
Average29 °F85%30.22 "Hg
* Reported Jan 27 4:55 PM — Feb 11 4:55 PM, Kalispell, Weather by CustomWeather, © 2016

Note: Actual official high and low records may vary slightly from our data, if they occured in-between our weather recording intervals... More about our weather records

Advertising

Kalispell Weather History for the Previous 24 Hours

 ConditionsComfort  
Time TempWeatherWind HumidityBarometerVisibility
4:55 PM
Thu, Feb 11
41 °FSunny.No wind74%30.31 "Hg10 mi
3:55 PM44 °FSunny.No wind65%30.31 "Hg10 mi
1:55 PM46 °FSunny.3 mph58%30.33 "Hg10 mi
12:55 PM42 °FSunny.No wind68%30.36 "Hg10 mi
11:55 AM41 °FSunny.No wind70%30.35 "Hg10 mi
10:55 AM40 °FSunny.No wind73%30.36 "Hg10 mi
9:55 AM33 °FSunny.No wind85%30.37 "Hg7 mi
8:55 AM30 °FSunny.No wind92%30.36 "Hg7 mi
7:55 AM31 °FPartly sunny.No wind92%30.35 "Hg10 mi
6:55 AM32 °FOvercast.No wind92%30.32 "Hg10 mi
5:55 AM32 °FMostly cloudy.No wind88%30.32 "Hg10 mi
4:55 AM32 °FPartly cloudy.No wind88%30.29 "Hg10 mi
3:55 AM32 °FMostly cloudy.No wind92%30.29 "Hg10 mi
2:55 AM31 °FMostly cloudy.3 mph92%30.27 "Hg9 mi
1:55 AM30 °FOvercast.3 mph92%30.26 "Hg7 mi
12:55 AM29 °FIce fog.6 mph93%30.26 "Hg5 mi
11:55 PM
Wed, Feb 10
33 °FOvercast.3 mph88%30.26 "Hg9 mi
10:55 PM31 °FPassing clouds.No wind89%30.26 "Hg9 mi
9:55 PM33 °FClear.5 mph85%30.25 "Hg9 mi
8:55 PM33 °FOvercast.No wind88%30.26 "Hg8 mi
7:55 PM33 °FOvercast.No wind85%30.27 "Hg9 mi
6:55 PM35 °FPartly cloudy.No wind82%30.28 "Hg10 mi
Weather by CustomWeather, © 2016

See weather overviewHow to use our weather pages